OpenBCM V1.13 (Linux)

Packet Radio Mailbox

DB0FHN

[JN59NK Nuernberg]

 Login: GUEST





  
I6KZR  > KEPLER   03.01.03 21:51l 1460 Lines 39196 Bytes #999 (0) @ WW
BID : 16155_IK6WID
Read: DB0FHN GUEST
Subj: Old Istantrak keplerians #003
Path: DB0FHN<DB0RGB<OK0PPL<RZ6HXA<SP7MGD<IK6PYS<I6ZLO<IK6WID
Sent: 030103/1938Z @:IK6WID.#AP.IMAR.ITA.EU #:16155 [MONTE URANO]  FBB7.00i
From: I6KZR@IK6WID.#AP.IMAR.ITA.EU
To  : KEPLER@WW


Satellite: OSCAR 7
Catalog number: 07530
Epoch time:      103001.72787133
Element set:     139 
Inclination:      101.7696 deg
RA of node:        49.9504 deg
Eccentricity:    0.0012389
Arg of perigee:   170.1414 deg
Mean anomaly:     189.9901 deg
Mean motion:   12.53563184 rev/day
Decay rate:   -2.9000E-007 rev/day^2
Epoch rev:           28719
Checksum:              308

Satellite: GOES 2
Catalog number: 10061
Epoch time:      102359.35983672
Element set:     32 
Inclination:       14.1180 deg
RA of node:        13.8737 deg
Eccentricity:    0.0014065
Arg of perigee:   196.4899 deg
Mean anomaly:     163.4904 deg
Mean motion:    0.99401889 rev/day
Decay rate:   -3.0500E-006 rev/day^2
Epoch rev:            3828
Checksum:              302

Satellite: GOES 3
Catalog number: 10953
Epoch time:      103001.07118427
Element set:     876 
Inclination:       13.3873 deg
RA of node:        17.5997 deg
Eccentricity:    0.0004450
Arg of perigee:   337.9098 deg
Mean anomaly:      22.0760 deg
Mean motion:    1.00277581 rev/day
Decay rate:   -9.6999E-007 rev/day^2
Epoch rev:            4301
Checksum:              306

Satellite: GOES 6
Catalog number: 14050
Epoch time:      102365.19374659
Element set:     409 
Inclination:       10.3375 deg
RA of node:        35.7955 deg
Eccentricity:    0.0002757
Arg of perigee:   356.3386 deg
Mean anomaly:       3.6439 deg
Mean motion:    1.00286901 rev/day
Decay rate:    5.8000E-007 rev/day^2
Epoch rev:           13014
Checksum:              287

Satellite: OSCAR 10
Catalog number: 14129
Epoch time:      103002.77971805
Element set:     908 
Inclination:       25.8491 deg
RA of node:       172.1062 deg
Eccentricity:    0.6046087
Arg of perigee:   315.8046 deg
Mean anomaly:       9.2082 deg
Mean motion:    2.05865954 rev/day
Decay rate:    2.6200E-006 rev/day^2
Epoch rev:           11910
Checksum:              287

Satellite: OSCAR 11 (UoSA
Catalog number: 14781
Epoch time:      103002.55730509
Element set:     34 
Inclination:       98.1112 deg
RA of node:       336.1464 deg
Eccentricity:    0.0009792
Arg of perigee:     9.2339 deg
Mean anomaly:     350.9045 deg
Mean motion:   14.77844021 rev/day
Decay rate:    1.9540E-005 rev/day^2
Epoch rev:             929
Checksum:              397

Satellite: NOAA 10
Catalog number: 16969
Epoch time:      103001.94078576
Element set:     669 
Inclination:       98.7260 deg
RA of node:       356.1650 deg
Eccentricity:    0.0011752
Arg of perigee:   224.7270 deg
Mean anomaly:     135.2963 deg
Mean motion:   14.27043840 rev/day
Decay rate:    2.9200E-006 rev/day^2
Epoch rev:           84711
Checksum:              311

Satellite: GOES 7
Catalog number: 17561
Epoch time:      102355.38651376
Element set:     789 
Inclination:        7.4944 deg
RA of node:        55.8496 deg
Eccentricity:    0.0008079
Arg of perigee:   326.4312 deg
Mean anomaly:      34.0198 deg
Mean motion:    1.00298198 rev/day
Decay rate:    1.0200E-006 rev/day^2
Epoch rev:            4115
Checksum:              307

Satellite: COSMOS 1861
Catalog number: 18129
Epoch time:      103003.51703384
Element set:     182 
Inclination:       82.9234 deg
RA of node:       180.6058 deg
Eccentricity:    0.0012317
Arg of perigee:     2.0421 deg
Mean anomaly:     358.0764 deg
Mean motion:   13.72695658 rev/day
Decay rate:    8.1000E-007 rev/day^2
Epoch rev:           77819
Checksum:              305

Satellite: EUTELSAT 1-F4 
Catalog number: 18351
Epoch time:      102352.12522730
Element set:     23 
Inclination:        7.0733 deg
RA of node:        58.7527 deg
Eccentricity:    0.0004962
Arg of perigee:   184.4653 deg
Mean anomaly:     172.0391 deg
Mean motion:    0.96710043 rev/day
Decay rate:   -6.1999E-007 rev/day^2
Epoch rev:            4206
Checksum:              396

Satellite: NOAA 11
Catalog number: 19531
Epoch time:      103001.97815878
Element set:     451 
Inclination:       98.9082 deg
RA of node:        83.5044 deg
Eccentricity:    0.0011567
Arg of perigee:   341.6557 deg
Mean anomaly:      18.4196 deg
Mean motion:   14.14513716 rev/day
Decay rate:    2.5800E-006 rev/day^2
Epoch rev:           73607
Checksum:              313

Satellite: ASTRA 1A
Catalog number: 19688
Epoch time:      102364.86148297
Element set:     551 
Inclination:        1.2492 deg
RA of node:        96.7833 deg
Eccentricity:    0.0003014
Arg of perigee:   182.8793 deg
Mean anomaly:     134.7898 deg
Mean motion:    1.00272573 rev/day
Decay rate:    4.1000E-007 rev/day^2
Epoch rev:            3169
Checksum:              311

Satellite: OSCAR 14 (UOSA
Catalog number: 20437
Epoch time:      103002.16945455
Element set:     132 
Inclination:       98.2794 deg
RA of node:        48.0314 deg
Eccentricity:    0.0010968
Arg of perigee:   348.0544 deg
Mean anomaly:      12.0375 deg
Mean motion:   14.31220415 rev/day
Decay rate:    1.7200E-006 rev/day^2
Epoch rev:           67571
Checksum:              276

Satellite: OSCAR 15 (UOSA
Catalog number: 20438
Epoch time:      103001.66491978
Element set:     766 
Inclination:       98.2537 deg
RA of node:        36.8871 deg
Eccentricity:    0.0010359
Arg of perigee:     1.0685 deg
Mean anomaly:     359.0518 deg
Mean motion:   14.30184041 rev/day
Decay rate:    1.5800E-006 rev/day^2
Epoch rev:           67531
Checksum:              312

Satellite: OSCAR 16 (PACS
Catalog number: 20439
Epoch time:      103001.70279447
Element set:     835 
Inclination:       98.3256 deg
RA of node:        58.9882 deg
Eccentricity:    0.0011425
Arg of perigee:   355.6186 deg
Mean anomaly:       4.4880 deg
Mean motion:   14.31450481 rev/day
Decay rate:    1.9399E-006 rev/day^2
Epoch rev:           67568
Checksum:              337

Satellite: OSCAR 17 (DOVE
Catalog number: 20440
Epoch time:      103002.19017929
Element set:     717 
Inclination:       98.3450 deg
RA of node:        63.2392 deg
Eccentricity:    0.0011365
Arg of perigee:   352.9991 deg
Mean anomaly:       7.1020 deg
Mean motion:   14.31727633 rev/day
Decay rate:    2.7799E-006 rev/day^2
Epoch rev:           67582
Checksum:              307

Satellite: OSCAR 18 (WEBE
Catalog number: 20441
Epoch time:      103001.96592240
Element set:     992 
Inclination:       98.3424 deg
RA of node:        62.2649 deg
Eccentricity:    0.0011724
Arg of perigee:   354.9291 deg
Mean anomaly:       5.1776 deg
Mean motion:   14.31533893 rev/day
Decay rate:    2.6499E-006 rev/day^2
Epoch rev:           67577
Checksum:              330

Satellite: OSCAR 19 (LUSA
Catalog number: 20442
Epoch time:      103002.22930952
Element set:     930 
Inclination:       98.3551 deg
RA of node:        65.4555 deg
Eccentricity:    0.0012050
Arg of perigee:   352.4333 deg
Mean anomaly:       7.6662 deg
Mean motion:   14.31695970 rev/day
Decay rate:    2.4799E-006 rev/day^2
Epoch rev:           67586
Checksum:              312

Satellite: JAS 1B (FUJI 2
Catalog number: 20480
Epoch time:      103001.99101090
Element set:     452 
Inclination:       99.0398 deg
RA of node:       333.7042 deg
Eccentricity:    0.0540942
Arg of perigee:   111.5775 deg
Mean anomaly:     254.3847 deg
Mean motion:   12.83327462 rev/day
Decay rate:    9.9999E-009 rev/day^2
Epoch rev:           60441
Checksum:              319

Satellite: HST
Catalog number: 20580
Epoch time:      103003.18006837
Element set:     284 
Inclination:       28.4686 deg
RA of node:       339.3888 deg
Eccentricity:    0.0004382
Arg of perigee:   139.0391 deg
Mean anomaly:     326.0356 deg
Mean motion:   14.97604525 rev/day
Decay rate:    2.0530E-005 rev/day^2
Epoch rev:           49567
Checksum:              310

Satellite: EUTELSAT 2-F1
Catalog number: 20777
Epoch time:      102363.88046470
Element set:     9 
Inclination:        3.3773 deg
RA of node:        85.0294 deg
Eccentricity:    0.0001628
Arg of perigee:   236.2766 deg
Mean anomaly:     169.8068 deg
Mean motion:    1.00384072 rev/day
Decay rate:   -1.1800E-006 rev/day^2
Epoch rev:            2559
Checksum:              297

Satellite: FENGYUN 1B
Catalog number: 20788
Epoch time:      103003.50729979
Element set:     849 
Inclination:       99.0208 deg
RA of node:       346.1513 deg
Eccentricity:    0.0015803
Arg of perigee:   358.3397 deg
Mean anomaly:       1.7713 deg
Mean motion:   14.02137197 rev/day
Decay rate:    4.4700E-006 rev/day^2
Epoch rev:           63108
Checksum:              308

Satellite: EUTELSAT 2-F2
Catalog number: 21056
Epoch time:      102363.89428382
Element set:     603 
Inclination:        2.6092 deg
RA of node:        88.4131 deg
Eccentricity:    0.0002415
Arg of perigee:   217.3203 deg
Mean anomaly:     162.7392 deg
Mean motion:    1.00269142 rev/day
Decay rate:    1.2799E-006 rev/day^2
Epoch rev:            3137
Checksum:              272

Satellite: INFORMATOR 1
Catalog number: 21087
Epoch time:      103001.96562681
Element set:     610 
Inclination:       82.9413 deg
RA of node:       352.6596 deg
Eccentricity:    0.0036736
Arg of perigee:    24.7016 deg
Mean anomaly:     335.5889 deg
Mean motion:   13.74921355 rev/day
Decay rate:    7.4000E-007 rev/day^2
Epoch rev:           59834
Checksum:              317

Satellite: COSMOS 2123
Catalog number: 21089
Epoch time:      103001.85684927
Element set:     491 
Inclination:       82.9239 deg
RA of node:       216.7761 deg
Eccentricity:    0.0030885
Arg of perigee:    59.5295 deg
Mean anomaly:     300.8903 deg
Mean motion:   13.74398696 rev/day
Decay rate:    4.4999E-007 rev/day^2
Epoch rev:           59723
Checksum:              372

